TimeCDT,TemperatureF,Dew PointF,Humidity,Sea Level PressureIn,VisibilityMPH,Wind Direction,Wind SpeedMPH,Gust SpeedMPH,PrecipitationIn,Events,Conditions,WindDirDegrees,DateUTC
12:15 AM,72.0,68.9,90,29.99,10.0,ESE,5.8,-,N/A,,Overcast,110,2014-08-08 05:15:00
12:35 AM,71.6,68.9,91,29.99,10.0,East,5.8,-,N/A,,Overcast,100,2014-08-08 05:35:00
12:55 AM,71.6,68.2,89,29.98,10.0,ESE,9.2,-,N/A,,Overcast,120,2014-08-08 05:55:00
1:15 AM,71.6,67.3,86,29.99,10.0,SE,9.2,-,N/A,,Overcast,130,2014-08-08 06:15:00
1:35 AM,71.4,67.1,86,29.99,10.0,ESE,6.9,-,N/A,,Overcast,120,2014-08-08 06:35:00
1:55 AM,71.2,67.1,87,29.99,10.0,ESE,5.8,-,N/A,,Overcast,120,2014-08-08 06:55:00
2:15 AM,71.1,67.1,87,29.98,10.0,ESE,8.1,-,N/A,,Overcast,120,2014-08-08 07:15:00
2:35 AM,70.9,67.1,88,29.98,10.0,ESE,6.9,-,N/A,,Overcast,120,2014-08-08 07:35:00
2:55 AM,70.7,67.1,88,29.98,10.0,ESE,4.6,-,N/A,,Overcast,110,2014-08-08 07:55:00
3:15 AM,70.7,67.1,88,29.98,10.0,ESE,6.9,-,N/A,,Overcast,110,2014-08-08 08:15:00
3:35 AM,70.7,67.1,88,29.98,7.0,ESE,5.8,-,N/A,,Overcast,110,2014-08-08 08:35:00
3:55 AM,70.3,66.7,88,29.99,7.0,ESE,5.8,-,N/A,,Overcast,110,2014-08-08 08:55:00
4:15 AM,70.3,66.7,88,29.98,7.0,ESE,6.9,-,N/A,,Overcast,110,2014-08-08 09:15:00
4:35 AM,70.2,66.7,89,29.97,7.0,East,6.9,-,N/A,,Overcast,100,2014-08-08 09:35:00
4:55 AM,70.0,67.1,91,29.97,7.0,ESE,5.8,-,N/A,,Overcast,110,2014-08-08 09:55:00
5:15 AM,70.0,67.1,91,29.98,7.0,ESE,3.5,-,N/A,,Overcast,110,2014-08-08 10:15:00
5:35 AM,70.0,66.7,89,29.98,7.0,East,5.8,-,N/A,,Overcast,100,2014-08-08 10:35:00
5:55 AM,70.0,66.7,89,29.99,10.0,ESE,5.8,-,N/A,,Overcast,120,2014-08-08 10:55:00
6:15 AM,70.0,66.7,89,29.99,10.0,ESE,4.6,-,N/A,,Overcast,110,2014-08-08 11:15:00
6:35 AM,69.8,66.7,90,30.00,10.0,ESE,4.6,-,N/A,,Overcast,110,2014-08-08 11:35:00
6:55 AM,70.0,67.1,91,30.01,7.0,East,6.9,-,N/A,,Overcast,100,2014-08-08 11:55:00
7:15 AM,70.0,66.7,89,30.01,7.0,ESE,8.1,-,N/A,,Overcast,110,2014-08-08 12:15:00
7:35 AM,70.2,66.9,89,30.01,10.0,ESE,5.8,-,N/A,,Overcast,120,2014-08-08 12:35:00
7:55 AM,70.7,67.1,88,30.01,10.0,ESE,4.6,-,N/A,,Overcast,120,2014-08-08 12:55:00
8:15 AM,70.5,66.9,88,30.02,10.0,SE,3.5,-,N/A,,Overcast,130,2014-08-08 13:15:00
8:35 AM,70.7,66.6,87,30.02,10.0,SE,5.8,-,N/A,,Overcast,140,2014-08-08 13:35:00
8:55 AM,70.7,66.4,86,30.02,10.0,SE,8.1,-,N/A,,Overcast,130,2014-08-08 13:55:00
9:15 AM,70.5,66.7,88,30.03,5.0,SE,4.6,-,N/A,,Overcast,130,2014-08-08 14:15:00
9:35 AM,70.0,67.6,92,30.02,1.5,East,5.8,-,N/A,,Overcast,100,2014-08-08 14:35:00
9:55 AM,69.8,67.5,92,30.02,2.0,ESE,4.6,-,N/A,,Overcast,110,2014-08-08 14:55:00
10:15 AM,70.9,67.5,89,30.02,7.0,ESE,8.1,-,N/A,,Overcast,110,2014-08-08 15:15:00
10:35 AM,72.3,68.0,86,30.02,10.0,East,8.1,-,N/A,,Overcast,100,2014-08-08 15:35:00
10:55 AM,72.9,67.8,84,30.02,10.0,East,8.1,-,N/A,,Overcast,90,2014-08-08 15:55:00
11:35 AM,72.9,67.8,84,30.03,7.0,ESE,5.8,-,N/A,,Overcast,120,2014-08-08 16:35:00
11:55 AM,74.5,67.8,80,30.03,10.0,ESE,5.8,-,N/A,,Overcast,120,2014-08-08 16:55:00
12:15 PM,74.8,67.8,79,30.03,7.0,East,8.1,-,N/A,,Overcast,90,2014-08-08 17:15:00
12:35 PM,76.3,68.4,76,30.02,7.0,East,6.9,-,N/A,,Overcast,90,2014-08-08 17:35:00
12:55 PM,76.3,67.3,74,30.01,7.0,East,9.2,-,N/A,,Overcast,100,2014-08-08 17:55:00
1:15 PM,77.5,67.5,71,30.01,7.0,East,9.2,-,N/A,,Mostly Cloudy,100,2014-08-08 18:15:00
1:35 PM,77.0,66.7,70,30.01,7.0,ESE,8.1,-,N/A,,Mostly Cloudy,110,2014-08-08 18:35:00
1:55 PM,77.4,66.9,70,30.01,10.0,East,8.1,-,N/A,,Overcast,100,2014-08-08 18:55:00
2:15 PM,77.7,66.9,69,30.01,10.0,ESE,6.9,-,N/A,,Overcast,120,2014-08-08 19:15:00
2:35 PM,79.2,67.3,67,30.01,10.0,ESE,8.1,-,N/A,,Mostly Cloudy,120,2014-08-08 19:35:00
2:55 PM,77.7,67.1,70,30.01,10.0,East,9.2,-,N/A,,Mostly Cloudy,90,2014-08-08 19:55:00
3:15 PM,77.0,66.9,71,30.01,10.0,East,10.4,-,N/A,,Overcast,100,2014-08-08 20:15:00
3:35 PM,77.2,66.9,71,30.00,10.0,ESE,9.2,-,N/A,,Overcast,120,2014-08-08 20:35:00
3:55 PM,78.8,67.1,67,30.00,10.0,East,8.1,-,N/A,,Mostly Cloudy,80,2014-08-08 20:55:00
4:15 PM,78.8,66.6,66,30.00,10.0,SE,9.2,-,N/A,,Mostly Cloudy,130,2014-08-08 21:15:00
4:35 PM,78.6,66.4,66,30.00,10.0,East,6.9,-,N/A,,Mostly Cloudy,90,2014-08-08 21:35:00
4:55 PM,79.2,66.4,65,30.00,10.0,ESE,5.8,-,N/A,,Mostly Cloudy,120,2014-08-08 21:55:00
5:15 PM,78.8,65.3,63,30.00,10.0,ESE,6.9,-,N/A,,Mostly Cloudy,110,2014-08-08 22:15:00
5:35 PM,79.9,65.7,62,30.00,10.0,East,5.8,-,N/A,,Mostly Cloudy,90,2014-08-08 22:35:00
5:55 PM,78.1,64.0,62,29.99,10.0,East,9.2,-,N/A,,Scattered Clouds,100,2014-08-08 22:55:00
6:15 PM,79.7,65.8,62,30.00,10.0,ESE,4.6,-,N/A,,Scattered Clouds,110,2014-08-08 23:15:00
6:35 PM,79.0,65.5,63,29.99,10.0,East,6.9,-,N/A,,Scattered Clouds,90,2014-08-08 23:35:00
6:55 PM,78.4,65.1,63,29.99,10.0,ESE,6.9,-,N/A,,Clear,120,2014-08-08 23:55:00
7:15 PM,78.3,64.9,63,29.99,10.0,East,9.2,-,N/A,,Clear,100,2014-08-09 00:15:00
7:35 PM,77.9,64.6,63,29.98,10.0,East,9.2,-,N/A,,Clear,100,2014-08-09 00:35:00
7:55 PM,77.0,65.5,67,29.98,10.0,East,6.9,-,N/A,,Scattered Clouds,100,2014-08-09 00:55:00
8:15 PM,76.1,66.2,71,29.99,10.0,East,5.8,-,N/A,,Clear,90,2014-08-09 01:15:00
8:35 PM,74.7,66.2,75,29.99,10.0,East,5.8,-,N/A,,Clear,100,2014-08-09 01:35:00
8:55 PM,74.5,66.2,75,29.99,10.0,East,5.8,-,N/A,,Clear,90,2014-08-09 01:55:00
9:20 PM,74.1,66.2,76,30.00,10.0,East,6.9,-,N/A,,Clear,90,2014-08-09 02:20:00
9:30 PM,73.8,66.2,77,30.01,10.0,East,6.9,-,N/A,,Clear,90,2014-08-09 02:30:00
9:55 PM,73.4,65.8,77,30.02,10.0,East,8.1,-,N/A,,Clear,100,2014-08-09 02:55:00
10:15 PM,72.5,65.8,80,30.02,10.0,East,8.1,-,N/A,,Clear,100,2014-08-09 03:15:00
10:55 PM,72.0,66.0,81,30.03,10.0,East,8.1,-,N/A,,Clear,100,2014-08-09 03:55:00
11:15 PM,71.6,66.0,82,30.02,10.0,East,9.2,-,N/A,,Clear,100,2014-08-09 04:15:00
11:35 PM,71.2,66.2,84,30.02,10.0,ESE,8.1,-,N/A,,Clear,110,2014-08-09 04:35:00
11:55 PM,70.9,66.2,85,30.03,10.0,East,5.8,-,N/A,,Scattered Clouds,100,2014-08-09 04:55:00